Bled, Slovenia 16 day weather forecast

Slopes altitude range -1 m - -1m

Number of lifts: -1 Pistes: -1km

In some cases the lift and piste totals shown are for the ski domain (e.g. Three Valleys) rather than individual resort (e.g. Courchevel)

Overview

The 16 day weather forecast is fully updated 4 times every day.

    • Tue 19 MAR 2019
    • Tue 19
    • -3C 3C
    • Wed 20 MAR 2019
    • Wed 20
    • -4C 4C
    • Thu 21 MAR 2019
    • Thu 21
    • -2C 7C
    • Fri 22 MAR 2019
    • Fri 22
    • 1C 11C
    • Sat 23 MAR 2019
    • Sat 23
    • 3C 14C
    • Sun 24 MAR 2019
    • Sun 24
    • 5C 16C
    • Mon 25 MAR 2019
    • Mon 25
    • 5C 14C
    • Tue 26 MAR 2019
    • Tue 26
    • -2C 6C
    • Wed 27 MAR 2019
    • Wed 27
    • -1C 5C
    • Thu 28 MAR 2019
    • Thu 28
    • -2C 9C
    • Fri 29 MAR 2019
    • Fri 29
    • -2C 8C
    • Sat 30 MAR 2019
    • Sat 30
    • -4C 6C
    • Sun 31 MAR 2019
    • Sun 31
    • -1C 11C
    • Mon 01 APR 2019
    • Mon 01
    • 0C 6C
    • Tue 02 APR 2019
    • Tue 02
    • -2C 9C
    • Wed 03 APR 2019
    • Wed 03
    • -1C 9C

Date:

Time Type 0°C level Temp Chill Snow Cloud Speed Gust Dir Press
3:00 272m -5°C -5_3 0cm 95% 3mph 4mph 1025mB
6:00 441m -5°C -5_3 0cm 97% 3mph 4mph 1026mB
9:00 958m -3°C -3_5 1cm 97% 5mph 8mph 1025mB
12:00 1144m 3°C 3_4 1cm 92% 4mph 8mph 1025mB
15:00 1190m 3°C 3_4 1cm 88% 4mph 7mph 1025mB
18:00 945m 3°C 3_4 1cm 75% 4mph 5mph 1028mB
21:00 419m -3°C -3_4 0cm 11% 4mph 5mph 1031mB
0:00 166m -5°C -5_4 0cm 6% 4mph 5mph 1032mB
3:00 48m -6°C -6_4 0cm 0% 4mph 5mph 1033mB
6:00 205m -6°C -6_4 0cm 0% 4mph 5mph 1034mB
9:00 1022m -4°C -4_5 0cm 0% 5mph 8mph 1034mB
12:00 1240m 4°C 4_4 0cm 0% 4mph 7mph 1033mB
15:00 1371m 4°C 4_4 0cm 0% 4mph 6mph 1032mB
18:00 998m 4°C 4_2 0cm 0% 2mph 3mph 1034mB
21:00 470m -3°C -3_2 0cm 0% 2mph 3mph 1037mB
0:00 313m -4°C -4_2 0cm 0% 2mph 3mph 1037mB
3:00 213m -5°C -5_2 0cm 0% 2mph 2mph 1036mB
6:00 451m -5°C -5_1 0cm 0% 1mph 1mph 1036mB
9:00 1341m -2°C -2_4 0cm 0% 4mph 6mph 1034mB
12:00 1792m 7°C 7_4 0cm 0% 4mph 6mph 1033mB
15:00 2308m 7°C 7_3 0cm 13% 3mph 4mph 1031mB
18:00 1674m 7°C 7_1 0cm 16% 1mph 2mph 1033mB
21:00 1581m -1°C -1_1 0cm 10% 1mph 1mph 1034mB
0:00 643m -2°C -2_1 0cm 6% 1mph 1mph 1034mB
3:00 607m -2°C -2_1 0cm 4% 1mph 2mph 1034mB
6:00 1705m -2°C -2_2 0cm 27% 2mph 2mph 1034mB
9:00 2954m 1°C 1_3 0cm 20% 3mph 4mph 1032mB
12:00 2998m 11°C 11_3 0cm 10% 3mph 4mph 1030mB
15:00 3077m 11°C 11_2 0cm 2% 2mph 3mph 1029mB
18:00 3110m 11°C 11_2 0cm 1% 2mph 2mph 1031mB
21:00 3144m 2°C 2_2 0cm 2% 2mph 3mph 1032mB
0:00 2512m 1°C 1_2 0cm 1% 2mph 3mph 1031mB
3:00 1916m 1°C 1_2 0cm 0% 2mph 3mph 1030mB
6:00 3098m 1°C 1_2 0cm 0% 2mph 3mph 1030mB
9:00 3099m 3°C 3_2 0cm 0% 2mph 3mph 1028mB
12:00 3089m 14°C 14_3 0cm 0% 3mph 3mph 1027mB
15:00 3043m 14°C 14_3 0cm 0% 3mph 3mph 1025mB
18:00 2980m 14°C 14_3 0cm 0% 3mph 3mph 1026mB
21:00 2970m 4°C 4_3 0cm 0% 3mph 4mph 1027mB
0:00 2955m 4°C 4_3 0cm 0% 3mph 4mph 1026mB
3:00 2894m 3°C 3_4 0cm 0% 4mph 4mph 1026mB
6:00 2846m 3°C 3_4 0cm 0% 4mph 5mph 1025mB
9:00 2805m 5°C 5_3 0cm 0% 3mph 4mph 1024mB
12:00 2742m 16°C 16_2 0cm 0% 2mph 3mph 1022mB
15:00 2613m 16°C 16_2 0cm 0% 2mph 3mph 1020mB
18:00 2568m 16°C 16_4 0cm 0% 4mph 5mph 1021mB
21:00 2458m 6°C 6_3 0cm 4% 3mph 4mph 1023mB
0:00 2335m 5°C 5_3 0cm 15% 3mph 4mph 1022mB
3:00 2207m 5°C 5_3 0cm 52% 3mph 4mph 1022mB
6:00 2081m 4°C 4_3 0cm 61% 3mph 4mph 1023mB
9:00 1962m 5°C 5_3 0cm 75% 3mph 4mph 1023mB
12:00 2036m 14°C 14_2 0cm 64% 2mph 4mph 1022mB
15:00 2075m 13°C 13_2 0cm 87% 2mph 4mph 1022mB
18:00 1868m 13°C 13_3 0cm 84% 3mph 5mph 1023mB
21:00 1637m 4°C 4_3 0cm 67% 3mph 4mph 1026mB
0:00 1456m 3°C 3_2 1cm 75% 2mph 2mph 1027mB
3:00 1238m 1°C 1_2 0cm 60% 2mph 3mph 1028mB
6:00 1154m 0°C 0_1 0cm 44% 1mph 1mph 1028mB
9:00 1598m -2°C -2_5 0cm 3% 5mph 10mph 1028mB
12:00 1854m 6°C 6_9 0cm 2% 9mph 22mph 1026mB
15:00 1776m 6°C 6_11 0cm 20% 11mph 27mph 1025mB
18:00 1283m 6°C 6_7 0cm 18% 7mph 17mph 1028mB
21:00 1152m -2°C -2_6 0cm 11% 6mph 10mph 1031mB
0:00 1080m -3°C -3_5 0cm 11% 5mph 8mph 1033mB
3:00 1066m -3°C -3_5 0cm 18% 5mph 9mph 1033mB
6:00 1276m -3°C -3_5 0cm 30% 5mph 9mph 1033mB
9:00 1693m -1°C -1_6 0cm 76% 6mph 13mph 1032mB
12:00 1842m 5°C 5_7 0cm 86% 7mph 12mph 1031mB
15:00 1859m 6°C 6_7 0cm 27% 7mph 10mph 1030mB
18:00 1178m 6°C 6_5 0cm 14% 5mph 6mph 1032mB
21:00 901m -4°C -4_4 0cm 2% 4mph 5mph 1033mB
0:00 878m -4°C -4_4 0cm 2% 4mph 4mph 1032mB
3:00 879m -4°C -4_4 0cm 23% 4mph 5mph 1031mB
6:00 1168m -4°C -4_5 0cm 30% 5mph 7mph 1031mB
9:00 1861m -2°C -2_4 0cm 0% 4mph 8mph 1028mB
12:00 2143m 9°C 9_6 0cm 0% 6mph 10mph 1026mB
15:00 2133m 9°C 9_7 0cm 0% 7mph 12mph 1025mB
18:00 1414m 9°C 9_5 0cm 1% 5mph 6mph 1027mB
Morning 0mm 0 964m -3°C -3_6 0cm 24% 6mph 11mph 1031mB
Afternoon 0mm 0 1062m 8°C 8_4 0cm 1% 4mph 5mph 1028mB
Morning 0mm 0 622m -6°C -6_3 0cm 1% 3mph 4mph 1029mB
Afternoon 0mm 0 984m 6°C 6_6 0cm 0% 6mph 11mph 1025mB
Morning 0mm 0 1004m -5°C -5_5 0cm 2% 5mph 7mph 1022mB
Afternoon 0.333333mm 0.0625 2038m 11°C 11_4 0cm 51% 4mph 5mph 1018mB
Morning 0mm 0 1639m 0°C 0_4 0cm 95% 4mph 9mph 1022mB
Afternoon 0mm 0.25 1618m 6°C 6_4 2cm 89% 4mph 5mph 1023mB
Morning 0mm 0 993m -4°C -4_4 0cm 27% 4mph 6mph 1027mB
Afternoon 0mm 0 1730m 9°C 9_5 0cm 0% 5mph 6mph 1025mB
Morning 0mm 0 1047m -4°C -4_6 0cm 0% 6mph 13mph 1029mB
Afternoon 0mm 0 1786m 9°C 9_4 0cm 0% 4mph 5mph 1030mB

16 day outlook at a glance

Forecast issued: 18/03/2019 23:31:08

Chat

Your comments and questions. In a resort? Let us know what it's like!


Characters left 250

For terms and conditions see Readers Comments on the Cookie and privacy policy page.